Stations météo

réclame
Mon MeteoGroup
La Coruna/Alvedro, Espagne (8002): Température de l'air & dewpoint: 12.06.2018 15:00:00 - 18.06.2018 15:00:00 (CEST)La Coruna/Alvedro, Espagne (8002): Vitesse du vent: 12.06.2018 15:00:00 - 18.06.2018 15:00:00 (CEST)La Coruna/Alvedro, Espagne (8002): Direction du vent: 12.06.2018 15:00:00 - 18.06.2018 15:00:00 (CEST)La Coruna/Alvedro, Espagne (8002): reduced air pressure: 12.06.2018 15:00:00 - 18.06.2018 15:00:00 (CEST)La Coruna/Alvedro, Espagne (8002): visibility: 12.06.2018 15:00:00 - 18.06.2018 15:00:00 (CEST)
Date & Time tt [°C] td [°C] ff [km/h] ff [knt] dd ppp [hPa] vv [km]
18.06.2018 15:00:00 20,5 16,5 22 12 N 1025,7 10
18.06.2018 14:00:00 20,3 16,3 21 11 N 1026,0 10
18.06.2018 13:00:00 20,8 16,3 15 8 N 1026,4 10
18.06.2018 12:00:00 19,8 16,1 15 8 N 1026,5 20
18.06.2018 11:00:00 18,8 15,8 13 7 N 1026,6 30
18.06.2018 10:00:00 17,8 15,2 8 4 N 1027,1 10
18.06.2018 09:00:00 16,8 15,0 9 5 N 1026,9 10
18.06.2018 08:00:00 16,3 15,0 9 5 N 1026,9 10
18.06.2018 07:00:00 15,9 15,4 8 4 N 1026,7 10
18.06.2018 06:00:00 15,8 15,5 8 4 N 1026,5 8
18.06.2018 05:00:00 15,8 15,5 11 6 N 1026,9 5
18.06.2018 04:00:00 16,0 15,7 8 4 N 1027,1 3,2
18.06.2018 03:00:00 16,0 15,5 9 5 N 1026,9 3,4
18.06.2018 02:00:00 16,2 15,2 8 4 N 1027,1 10
18.06.2018 01:00:00 16,3 14,8 8 4 N 1027,2 10
18.06.2018 00:00:00 16,5 14,5 11 6 N 1027,4 10
17.06.2018 23:00:00 16,7 14,7 2 1 - 1027,0 10
17.06.2018 22:00:00 17,2 14,3 8 4 NNW 1026,7 10
17.06.2018 21:00:00 18,8 13,8 11 6 NNW 1026,5 10
17.06.2018 20:00:00 19,1 13,9 11 6 N 1026,2 10
17.06.2018 19:00:00 19,7 14,4 15 8 NNE 1026,2 10
17.06.2018 18:00:00 19,7 14,1 11 6 NNE 1026,0 10
17.06.2018 17:00:00 19,5 12,3 15 8 N 1026,2 10
17.06.2018 16:00:00 19,7 11,1 15 8 N 1026,2 10
17.06.2018 15:00:00 20,1 11,4 11 6 NNE 1025,9 10
17.06.2018 14:00:00 19,4 12,2 13 7 N 1026,0 10
17.06.2018 13:00:00 18,7 12,7 11 6 NNE 1026,1 10
17.06.2018 12:00:00 17,8 11,5 9 5 N 1026,1 10
17.06.2018 11:00:00 17,0 11,8 8 4 NNW 1025,9 10
17.06.2018 10:00:00 16,4 11,9 5 3 N 1025,8 10
17.06.2018 09:00:00 15,2 12,3 2 1 - 1025,7 10
17.06.2018 08:00:00 13,9 11,8 0 0 N 1025,5 10
17.06.2018 07:00:00 13,3 11,5 4 2 - 1024,9 10
17.06.2018 06:00:00 13,0 11,7 5 3 NNW 1024,8 10
17.06.2018 05:00:00 13,3 11,9 4 2 - 1024,8 10
17.06.2018 04:00:00 13,8 12,2 5 3 N 1024,5 10
17.06.2018 03:00:00 14,2 12,6 5 3 N 1024,5 10
17.06.2018 02:00:00 14,5 12,9 8 4 N 1024,6 10
17.06.2018 01:00:00 14,9 13,1 8 4 N 1024,6 10
17.06.2018 00:00:00 15,3 13,3 9 5 N 1024,5 10
16.06.2018 23:00:00 16,0 14,0 9 5 N 1023,9 10
16.06.2018 22:00:00 16,2 13,7 9 5 NNE 1023,5 10
16.06.2018 21:00:00 16,5 13,4 11 6 N 1023,0 30
16.06.2018 20:00:00 16,0 14,0 9 5 N 1022,8 10
16.06.2018 19:00:00 16,2 14,1 9 5 N 1022,7 10
16.06.2018 18:00:00 16,3 13,6 15 8 N 1022,8 10
16.06.2018 17:00:00 17,6 13,3 13 7 N 1022,5 10
16.06.2018 16:00:00 18,6 13,9 16 9 N 1021,9 10
16.06.2018 15:00:00 19,4 13,3 18 10 N 1021,8 30
16.06.2018 14:00:00 19,5 12,0 11 6 N 1021,7 10
16.06.2018 13:00:00 19,0 12,2 11 6 N 1021,7 10
16.06.2018 12:00:00 18,8 11,5 5 3 - 1021,4 10
16.06.2018 11:00:00 17,4 11,1 4 2 - 1021,8 10
16.06.2018 10:00:00 16,2 11,8 4 2 - 1021,5 10
16.06.2018 09:00:00 13,8 11,5 4 2 - 1021,3 10
16.06.2018 08:00:00 11,5 10,9 5 3 S 1021,1 10
16.06.2018 07:00:00 10,1 9,6 5 3 S 1021,2 10
16.06.2018 06:00:00 10,0 9,3 5 3 S 1020,7 12
16.06.2018 05:00:00 10,3 9,6 8 4 S 1020,8 8
16.06.2018 04:00:00 11,9 10,6 4 2 NW 1021,0 21
16.06.2018 03:00:00 12,5 11,1 4 2 NW 1021,1 21
16.06.2018 02:00:00 12,9 11,1 4 2 NW 1020,8 19
16.06.2018 01:00:00 13,4 11,5 5 3 NNW 1021,0 16
16.06.2018 00:00:00 14,5 11,6 5 3 N 1020,8 10
15.06.2018 23:00:00 15,5 12,3 8 4 N 1020,8 10
15.06.2018 22:00:00 15,8 12,0 15 8 N 1020,6 10
15.06.2018 21:00:00 16,9 12,2 9 5 N 1020,6 10
15.06.2018 20:00:00 16,2 11,6 13 7 N 1020,9 10
15.06.2018 19:00:00 16,5 11,8 18 10 N 1021,0 10
15.06.2018 18:00:00 17,0 11,8 13 7 N 1021,2 10
15.06.2018 17:00:00 16,2 11,9 21 11 N 1021,5 30
15.06.2018 16:00:00 16,6 12,5 16 9 N 1021,6 10
15.06.2018 15:00:00 16,0 12,5 21 11 N 1021,6 10
15.06.2018 14:00:00 16,4 13,3 18 10 N 1021,6 10
15.06.2018 13:00:00 16,3 13,3 21 11 N 1021,6 20
15.06.2018 12:00:00 15,4 13,2 13 7 N 1021,5 10
15.06.2018 11:00:00 14,0 13,8 16 9 N 1021,4 10
15.06.2018 10:00:00 13,6 13,4 13 7 N 1021,1 3,0
15.06.2018 09:00:00 13,9 13,7 16 9 N 1020,9 0,8
15.06.2018 08:00:00 13,8 13,6 22 12 N 1020,6 1,5
15.06.2018 07:00:00 14,2 14,0 18 10 N 1020,2 0,8
15.06.2018 06:00:00 14,9 14,7 15 8 N 1019,8 0,8
15.06.2018 05:00:00 15,4 15,2 15 8 N 1019,9 0,4
15.06.2018 04:00:00 16,1 15,9 5 3 N 1020,0 1,8
15.06.2018 03:00:00 16,2 16,0 4 2 - 1020,2 1,8
15.06.2018 02:00:00 16,1 15,8 2 1 - 1020,6 1,4
15.06.2018 01:00:00 15,9 15,6 2 1 - 1020,8 1,0
15.06.2018 00:00:00 15,9 15,4 4 2 NE 1021,1 1,4
14.06.2018 23:00:00 16,0 15,0 4 2 NNE 1020,9 4,0
14.06.2018 22:00:00 16,5 14,7 8 4 NNE 1020,7 10
14.06.2018 21:00:00 17,2 15,0 9 5 NNE 1020,5 10
14.06.2018 20:00:00 19,2 15,1 11 6 NNE 1020,4 10
14.06.2018 19:00:00 20,3 15,0 13 7 NNE 1020,3 10
14.06.2018 18:00:00 20,9 14,7 13 7 N 1020,4 30
14.06.2018 17:00:00 20,3 13,6 16 9 N 1020,5 10
14.06.2018 16:00:00 20,9 13,8 15 8 NNE 1020,5 10
14.06.2018 15:00:00 19,8 12,8 13 7 N 1020,7 10
14.06.2018 14:00:00 19,3 12,9 15 8 NNE 1021,1 10
14.06.2018 13:00:00 19,0 13,1 9 5 N 1021,3 10
14.06.2018 12:00:00 19,3 13,1 4 2 E 1021,3 10
14.06.2018 11:00:00 17,8 12,1 5 3 SE 1021,6 10
14.06.2018 10:00:00 15,8 11,0 5 3 ENE 1021,9 10
14.06.2018 09:00:00 16,0 12,0 2 1 - 1022,0 10
14.06.2018 08:00:00 13,8 12,0 4 2 - 1021,7 10
14.06.2018 07:00:00 13,4 12,1 5 3 S 1021,6 10
14.06.2018 06:00:00 13,8 12,4 4 2 - 1021,5 10
14.06.2018 05:00:00 14,3 12,0 8 4 N 1021,8 30
14.06.2018 04:00:00 14,4 12,4 5 3 NNE 1022,3 10
14.06.2018 03:00:00 14,5 12,2 9 5 N 1022,6 10
14.06.2018 02:00:00 14,5 12,7 8 4 N 1023,1 10
14.06.2018 01:00:00 14,4 12,8 8 4 N 1023,2 10
14.06.2018 00:00:00 14,8 12,8 9 5 N 1023,4 10
13.06.2018 23:00:00 14,8 12,5 8 4 N 1023,3 10
13.06.2018 22:00:00 15,0 12,3 18 10 NNW 1023,2 10
13.06.2018 21:00:00 15,9 12,3 13 7 N 1023,1 10
13.06.2018 20:00:00 17,3 12,8 15 8 N 1023,1 10
13.06.2018 19:00:00 17,1 12,4 15 8 NNE 1023,2 10
13.06.2018 18:00:00 17,7 12,6 16 9 N 1023,4 10
13.06.2018 17:00:00 17,6 12,6 15 8 N 1023,5 10
13.06.2018 16:00:00 17,4 13,4 18 10 N 1024,0 30
13.06.2018 15:00:00 17,6 13,4 16 9 N 1024,2 10
13.06.2018 14:00:00 17,7 14,1 15 8 N 1024,5 10
13.06.2018 13:00:00 16,5 12,9 15 8 N 1024,6 10
13.06.2018 12:00:00 17,1 13,6 13 7 NNE 1024,4 21
13.06.2018 11:00:00 16,0 12,7 13 7 NNE 1024,4 10
13.06.2018 10:00:00 15,5 13,1 13 7 NNE 1024,5 10
13.06.2018 09:00:00 15,1 12,8 11 6 N 1024,2 10
13.06.2018 08:00:00 14,5 12,7 8 4 N 1023,9 10
13.06.2018 07:00:00 14,2 12,2 8 4 N 1023,9 10
13.06.2018 06:00:00 14,3 12,5 9 5 N 1023,8 10
13.06.2018 05:00:00 14,5 12,9 11 6 N 1024,2 10
13.06.2018 04:00:00 14,6 13,5 11 6 N 1024,5 10
13.06.2018 03:00:00 14,8 14,0 11 6 N 1024,6 7
13.06.2018 02:00:00 14,7 13,9 5 3 NNE 1024,7 8
13.06.2018 01:00:00 14,7 13,9 8 4 N 1024,5 6
13.06.2018 00:00:00 14,6 13,5 8 4 N 1024,2 10
12.06.2018 23:00:00 14,1 12,7 4 2 - 1023,6 10
12.06.2018 22:00:00 14,7 13,2 8 4 N 1023,1 10
12.06.2018 21:00:00 15,4 12,3 9 5 N 1022,9 10
12.06.2018 20:00:00 15,7 11,8 9 5 NNE 1022,7 10
12.06.2018 19:00:00 16,4 12,0 11 6 NNE 1022,6 10
12.06.2018 18:00:00 16,7 12,2 15 8 NNE 1022,4 10
12.06.2018 17:00:00 17,6 12,3 11 6 NNW 1022,5 10
12.06.2018 16:00:00 17,7 11,9 11 6 NNW 1022,5 10
12.06.2018 15:00:00 17,1 11,8 13 7 NNW 1022,6 10

tt = Température de l'air
td = dewpoint
ff = Vitesse du vent
dd = Direction du vent
ppp = reduced air pressure
vv = visibility

stations d'obs. à proximité